Tracking 20942 objects as of 13-Jul-2020
HD Live streaming from Space Station
objects crossing your sky now

THOR ABLESTAR DEB

Track THOR ABLESTAR DEB now!
10-day predictions


NORAD ID: 357
Int'l Code: 1961-015DX
Perigee: 872.9 km
Apogee: 901.6 km
Inclination: 66.8 °
Period: 102.6 minutes
Semi major axis: 7258 km
RCS: 0.059 m2 (small)
Launch date: June 29, 1961
Source: United States (US)
Launch site: AIR FORCE EASTERN TEST RANGE (AFETR)

Note: This is SATELLITE DEBRIS
aabbcc
Your satellite tracking list
Your tracking list is empty




NASA's NSSDC Master Catalog

Two Line Element Set (TLE):
1   357U 61015DX  20194.98101613 -.00000034  00000-0  28475-4 0  9991
2   357  66.8103 266.2595 0019824 289.0147  70.8791 14.03960020991872
Source of the keplerian elements: AFSPC